| time (UTC) | temp F | wind direction | speed knots | gust knots | rain 1hr in | rain 24hr in | rain mn in | humidity % | barometer mb |
| 20260505011552 | 64 | 360 | 14.8 | 25.2 | 0.00 | 0.00 | 0.00 | 34 | 1004.8 |
| 20260505011050 | 65 | 14 | 16.5 | 25.2 | 0.00 | 0.00 | 0.00 | 34 | 1004.8 |
| 20260505010550 | 65 | 5 | 11.3 | 20.0 | 0.00 | 0.00 | 0.00 | 34 | 1004.8 |
| 20260505010050 | 65 | 20 | 12.2 | 24.3 | 0.00 | 0.00 | 0.00 | 34 | 1004.4 |
| 20260505005550 | 66 | 360 | 14.8 | 24.3 | 0.00 | 0.00 | 0.00 | 33 | 1004.4 |
| 20260505005050 | 66 | 21 | 14.8 | 23.5 | 0.00 | 0.00 | 0.00 | 33 | 1004.4 |
| 20260505004555 | 67 | 29 | 15.6 | 22.6 | 0.00 | 0.00 | 0.00 | 32 | 1004.1 |
| 20260505004050 | 68 | 22 | 15.6 | 21.7 | 0.00 | 0.00 | 0.00 | 32 | 1004.1 |
| 20260505003549 | 68 | 24 | 15.6 | 21.7 | 0.00 | 0.00 | 0.00 | 31 | 1004.1 |
| 20260505003052 | 69 | 14 | 14.8 | 20.9 | 0.00 | 0.00 | 0.00 | 31 | 1003.9 |
| 20260505002551 | 70 | 360 | 9.6 | 18.2 | 0.00 | 0.00 | 0.00 | 32 | 1003.9 |
| 20260505002048 | 70 | 22 | 8.7 | 14.8 | 0.00 | 0.00 | 0.00 | 32 | 1003.9 |
| 20260505001548 | 70 | 21 | 8.7 | 16.5 | 0.00 | 0.00 | 0.00 | 32 | 1003.9 |
| 20260505001047 | 70 | 10 | 11.3 | 18.2 | 0.00 | 0.00 | 0.00 | 31 | 1003.9 |
| 20260505000547 | 70 | 5 | 12.2 | 18.2 | 0.00 | 0.00 | 0.00 | 31 | 1003.9 |
| 20260505000055 | 70 | 347 | 11.3 | 18.2 | 0.00 | 0.00 | 0.00 | 30 | 1003.9 |
| 20260504235550 | 71 | 5 | 12.2 | 18.2 | 0.00 | 0.00 | 0.00 | 29 | 1003.9 |
| 20260504235047 | 72 | 14 | 9.6 | 16.5 | 0.00 | 0.00 | 0.00 | 30 | 1003.9 |
| 20260504234546 | 72 | 25 | 10.4 | 17.4 | 0.00 | 0.00 | 0.00 | 29 | 1003.5 |
| 20260504234046 | 72 | 5 | 12.2 | 19.1 | 0.00 | 0.00 | 0.00 | 29 | 1003.5 |
| 20260504233547 | 72 | 360 | 11.3 | 19.1 | 0.00 | 0.00 | 0.00 | 30 | 1003.5 |
| 20260504233045 | 73 | 355 | 11.3 | 19.1 | 0.00 | 0.00 | 0.00 | 29 | 1003.3 |
| 20260504232546 | 73 | 17 | 12.2 | 19.1 | 0.00 | 0.00 | 0.00 | 29 | 1003.3 |
| 20260504232047 | 73 | 342 | 10.4 | 17.4 | 0.00 | 0.00 | 0.00 | 29 | 1003.3 |
| 20260504231544 | 73 | 355 | 10.4 | 20.9 | 0.00 | 0.00 | 0.00 | 28 | 1002.8 |
| 20260504231044 | 74 | 18 | 14.8 | 20.9 | 0.00 | 0.00 | 0.00 | 28 | 1002.8 |
| 20260504230546 | 74 | 15 | 11.3 | 18.2 | 0.00 | 0.00 | 0.00 | 28 | 1002.8 |
| 20260504230049 | 75 | 23 | 12.2 | 17.4 | 0.00 | 0.00 | 0.00 | 28 | 1002.4 |
| 20260504225544 | 75 | 340 | 13.0 | 20.9 | 0.00 | 0.00 | 0.00 | 28 | 1002.4 |
| 20260504225043 | 75 | 21 | 13.0 | 20.9 | 0.00 | 0.00 | 0.00 | 27 | 1002.4 |
| 20260504224547 | 76 | 355 | 13.0 | 18.2 | 0.00 | 0.00 | 0.00 | 28 | 1002.2 |
| 20260504224043 | 76 | 355 | 10.4 | 16.5 | 0.00 | 0.00 | 0.00 | 28 | 1002.2 |
| 20260504223543 | 77 | 5 | 10.4 | 19.1 | 0.00 | 0.00 | 0.00 | 27 | 1002.2 |
| 20260504223042 | 77 | 36 | 12.2 | 20.9 | 0.00 | 0.00 | 0.00 | 27 | 1001.7 |
| 20260504222545 | 77 | 13 | 12.2 | 20.9 | 0.00 | 0.00 | 0.00 | 27 | 1001.7 |
| 20260504222042 | 77 | 350 | 9.6 | 18.2 | 0.00 | 0.00 | 0.00 | 28 | 1001.7 |
| 20260504221542 | 78 | 13 | 11.3 | 16.5 | 0.00 | 0.00 | 0.00 | 27 | 1001.4 |
| 20260504221041 | 78 | 31 | 12.2 | 16.5 | 0.00 | 0.00 | 0.00 | 27 | 1001.4 |
| 20260504220541 | 78 | 13 | 11.3 | 16.5 | 0.00 | 0.00 | 0.00 | 28 | 1001.4 |
| 20260504220042 | 78 | 32 | 11.3 | 16.5 | 0.00 | 0.00 | 0.00 | 28 | 1001.4 |
| 20260504215540 | 78 | 22 | 11.3 | 14.8 | 0.00 | 0.00 | 0.00 | 28 | 1001.4 |
| 20260504215040 | 79 | 346 | 9.6 | 15.6 | 0.00 | 0.00 | 0.00 | 29 | 1001.4 |
| 20260504214546 | 78 | 20 | 10.4 | 16.5 | 0.00 | 0.00 | 0.00 | 30 | 1001.3 |
| 20260504214039 | 78 | 32 | 10.4 | 16.5 | 0.00 | 0.00 | 0.00 | 29 | 1001.3 |
| 20260504213540 | 79 | 5 | 9.6 | 16.5 | 0.00 | 0.00 | 0.00 | 30 | 1001.3 |
| 20260504213039 | 79 | 15 | 10.4 | 15.6 | 0.00 | 0.00 | 0.00 | 30 | 1001.2 |
| 20260504212538 | 80 | 13 | 7.0 | 18.2 | 0.00 | 0.00 | 0.00 | 30 | 1001.2 |
| 20260504212041 | 79 | 27 | 12.2 | 18.2 | 0.00 | 0.00 | 0.00 | 31 | 1001.2 |
| 20260504211538 | 79 | 10 | 11.3 | 15.6 | 0.00 | 0.00 | 0.00 | 31 | 1001.2 |
| 20260504211041 | 79 | 349 | 4.3 | 15.6 | 0.00 | 0.00 | 0.00 | 32 | 1001.2 |
| 20260504210539 | 79 | 343 | 8.7 | 15.6 | 0.00 | 0.00 | 0.00 | 31 | 1001.2 |
| 20260504210053 | 79 | 5 | 8.7 | 13.9 | 0.00 | 0.00 | 0.00 | 31 | 1001.2 |
| 20260504205538 | 79 | 360 | 7.8 | 13.9 | 0.00 | 0.00 | 0.00 | 31 | 1001.2 |
| 20260504205038 | 80 | 336 | 8.7 | 17.4 | 0.00 | 0.00 | 0.00 | 31 | 1001.2 |
| 20260504204552 | 80 | 5 | 11.3 | 17.4 | 0.00 | 0.00 | 0.00 | 31 | 1001.0 |
| 20260504204037 | 80 | 15 | 8.7 | 13.9 | 0.00 | 0.00 | 0.00 | 32 | 1001.0 |
| 20260504203537 | 80 | 335 | 8.7 | 15.6 | 0.00 | 0.00 | 0.00 | 32 | 1001.0 |
| 20260504203038 | 80 | 360 | 9.6 | 17.4 | 0.00 | 0.00 | 0.00 | 32 | 1000.9 |
| 20260504202535 | 81 | 317 | 11.3 | 17.4 | 0.00 | 0.00 | 0.00 | 31 | 1000.9 |
| 20260504202036 | 80 | 346 | 7.0 | 14.8 | 0.00 | 0.00 | 0.00 | 31 | 1000.9 |
| 20260504201535 | 81 | 309 | 8.7 | 15.6 | 0.00 | 0.00 | 0.00 | 31 | 1000.8 |
| 20260504201036 | 80 | 355 | 9.6 | 16.5 | 0.00 | 0.00 | 0.00 | 32 | 1000.8 |
| 20260504200536 | 80 | 355 | 12.2 | 16.5 | 0.00 | 0.00 | 0.00 | 30 | 1000.8 |
| 20260504200036 | 81 | 333 | 7.8 | 14.8 | 0.00 | 0.00 | 0.00 | 30 | 1000.7 |
| 20260504195535 | 81 | 348 | 9.6 | 15.6 | 0.00 | 0.00 | 0.00 | 30 | 1000.7 |
| 20260504195035 | 81 | 346 | 8.7 | 15.6 | 0.00 | 0.00 | 0.00 | 30 | 1000.7 |
| 20260504194535 | 81 | 360 | 7.8 | 13.9 | 0.00 | 0.00 | 0.00 | 28 | 1000.7 |
| 20260504194036 | 82 | 348 | 9.6 | 13.9 | 0.00 | 0.00 | 0.00 | 27 | 1000.7 |
| 20260504193538 | 81 | 336 | 7.0 | 14.8 | 0.00 | 0.00 | 0.00 | 28 | 1000.7 |
| 20260504193035 | 82 | 314 | 8.7 | 14.8 | 0.00 | 0.00 | 0.00 | 28 | 1000.6 |
| 20260504192534 | 82 | 5 | 7.8 | 13.9 | 0.00 | 0.00 | 0.00 | 26 | 1000.6 |
| 20260504192034 | 82 | 310 | 9.6 | 14.8 | 0.00 | 0.00 | 0.00 | 28 | 1000.6 |
| 20260504191534 | 82 | 355 | 9.6 | 15.6 | 0.00 | 0.00 | 0.00 | 26 | 1000.5 |
| 20260504191034 | 82 | 312 | 8.7 | 13.0 | 0.00 | 0.00 | 0.00 | 28 | 1000.5 |
| 20260504190535 | 82 | 340 | 6.1 | 16.5 | 0.00 | 0.00 | 0.00 | 26 | 1000.5 |
| 20260504190034 | 82 | 311 | 10.4 | 16.5 | 0.00 | 0.00 | 0.00 | 26 | 1000.4 |
| 20260504185533 | 82 | 300 | 7.0 | 12.2 | 0.00 | 0.00 | 0.00 | 27 | 1000.4 |
| 20260504185037 | 82 | 308 | 7.8 | 12.2 | 0.00 | 0.00 | 0.00 | 28 | 1000.4 |
| 20260504184532 | 82 | 296 | 4.3 | 13.9 | 0.00 | 0.00 | 0.00 | 27 | 1000.5 |
| 20260504184031 | 82 | 348 | 8.7 | 13.9 | 0.00 | 0.00 | 0.00 | 28 | 1000.5 |
| 20260504183530 | 82 | 355 | 5.2 | 13.9 | 0.00 | 0.00 | 0.00 | 27 | 1000.5 |
| 20260504183029 | 81 | 341 | 8.7 | 13.9 | 0.00 | 0.00 | 0.00 | 28 | 1000.7 |
| 20260504182529 | 81 | 315 | 5.2 | 13.0 | 0.00 | 0.00 | 0.00 | 27 | 1000.7 |
| 20260504182028 | 82 | 348 | 7.0 | 13.0 | 0.00 | 0.00 | 0.00 | 28 | 1000.7 |
| 20260504181528 | 81 | 315 | 8.7 | 14.8 | 0.00 | 0.00 | 0.00 | 25 | 1000.7 |
| 20260504181028 | 81 | 290 | 9.6 | 16.5 | 0.00 | 0.00 | 0.00 | 26 | 1000.7 |
| 20260504180526 | 81 | 338 | 8.7 | 16.5 | 0.00 | 0.00 | 0.00 | 27 | 1000.7 |
| 20260504180025 | 81 | 300 | 10.4 | 14.8 | 0.00 | 0.00 | 0.00 | 27 | 1000.9 |
| 20260504175524 | 81 | 355 | 7.0 | 12.2 | 0.00 | 0.00 | 0.00 | 28 | 1000.9 |
| 20260504175023 | 80 | 5 | 6.1 | 12.2 | 0.00 | 0.00 | 0.00 | 31 | 1000.9 |
| 20260504174523 | 80 | 338 | 7.0 | 13.0 | 0.00 | 0.00 | 0.00 | 29 | 1001.0 |
| 20260504174022 | 80 | 345 | 7.8 | 13.0 | 0.00 | 0.00 | 0.00 | 28 | 1001.0 |
| 20260504173521 | 80 | 259 | 6.1 | 11.3 | 0.00 | 0.00 | 0.00 | 29 | 1001.0 |
| 20260504173020 | 80 | 344 | 7.0 | 11.3 | 0.00 | 0.00 | 0.00 | 29 | 1001.1 |
| 20260504172519 | 79 | 5 | 6.1 | 13.0 | 0.00 | 0.00 | 0.00 | 31 | 1001.1 |
| 20260504172018 | 79 | 316 | 6.1 | 13.0 | 0.00 | 0.00 | 0.00 | 31 | 1001.1 |
| 20260504171517 | 79 | 355 | 3.5 | 11.3 | 0.00 | 0.00 | 0.00 | 31 | 1001.2 |
| 20260504171020 | 78 | 345 | 6.1 | 11.3 | 0.00 | 0.00 | 0.00 | 32 | 1001.2 |
| 20260504170517 | 78 | 333 | 5.2 | 11.3 | 0.00 | 0.00 | 0.00 | 33 | 1001.2 |
| 20260504160109 | 74 | 273 | 4.3 | 7.8 | 0.00 | 0.00 | 0.00 | 39 | 1001.4 |
| 20260504151044 | 69 | 315 | 4.3 | 7.8 | 0.00 | 0.00 | 0.00 | 44 | 1001.4 |
| 20260504150544 | 69 | 315 | 4.3 | 7.0 | 0.00 | 0.00 | 0.00 | 45 | 1001.4 |
| 20260504141026 | 64 | 289 | 4.3 | 7.8 | 0.00 | 0.00 | 0.00 | 54 | 1001.9 |
| 20260504140525 | 63 | 308 | 2.6 | 7.8 | 0.00 | 0.00 | 0.00 | 55 | 1001.9 |
| 20260504130508 | 55 | 123 | 0.9 | 2.6 | 0.00 | 0.00 | 0.00 | 74 | 1001.4 |
| 20260504110548 | 46 | 173 | 0.0 | 0.0 | 0.00 | 0.00 | 0.00 | 81 | 1001.3 |
| 20260504100541 | 46 | 173 | 0.0 | 0.0 | 0.00 | 0.00 | 0.00 | 78 | 1001.6 |
| 20260504081534 | 53 | 173 | 0.0 | 2.6 | 0.00 | 0.00 | 0.00 | 64 | 1003.0 |
| 20260504081031 | 53 | 173 | 0.0 | 2.6 | 0.00 | 0.00 | 0.00 | 63 | 1003.0 |
| 20260504080530 | 53 | 173 | 0.0 | 5.2 | 0.00 | 0.00 | 0.00 | 64 | 1003.0 |
| 20260504050506 | 54 | 203 | 0.9 | 3.5 | 0.00 | 0.00 | 0.00 | 64 | 1006.0 |
| 20260504050004 | 53 | 203 | 1.7 | 3.5 | 0.00 | 0.00 | 0.00 | 66 | 1006.1 |
| 20260504045503 | 52 | 202 | 0.9 | 2.6 | 0.00 | 0.00 | 0.00 | 69 | 1006.1 |
| 20260504045003 | 52 | 203 | 0.0 | 0.0 | 0.00 | 0.00 | 0.00 | 69 | 1006.1 |
| 20260504044509 | 52 | 203 | 0.0 | 0.0 | 0.00 | 0.00 | 0.00 | 70 | 1006.2 |
| 20260504044005 | 53 | 203 | 0.0 | 0.0 | 0.00 | 0.00 | 0.00 | 70 | 1006.2 |
| 20260504043502 | 53 | 203 | 0.0 | 0.0 | 0.00 | 0.00 | 0.00 | 69 | 1006.2 |
| 20260504043004 | 53 | 203 | 0.0 | 0.0 | 0.00 | 0.00 | 0.00 | 68 | 1006.3 |
| 20260504042502 | 53 | 203 | 0.0 | 0.0 | 0.00 | 0.00 | 0.00 | 67 | 1006.3 |
| 20260504042100 | 54 | 202 | 0.0 | 0.0 | 0.00 | 0.00 | 0.00 | 66 | 1006.3 |
| 20260504041614 | 54 | 202 | 0.0 | 0.0 | 0.00 | 0.00 | 0.00 | 65 | 1006.6 |
| 20260504041100 | 54 | 202 | 0.0 | 0.0 | 0.00 | 0.00 | 0.00 | 66 | 1006.6 |
| 20260504040600 | 54 | 203 | 0.0 | 0.9 | 0.00 | 0.00 | 0.00 | 66 | 1006.6 |
| 20260504040100 | 55 | 202 | 0.0 | 0.9 | 0.00 | 0.00 | 0.00 | 64 | 1006.6 |
| 20260504035559 | 55 | 202 | 0.0 | 1.7 | 0.00 | 0.00 | 0.00 | 65 | 1006.6 |
| 20260504035059 | 55 | 202 | 0.0 | 1.7 | 0.00 | 0.00 | 0.00 | 65 | 1006.6 |
| 20260504034620 | 55 | 203 | 0.0 | 0.0 | 0.00 | 0.00 | 0.00 | 63 | 1006.7 |
| 20260504034058 | 55 | 202 | 0.0 | 2.6 | 0.00 | 0.00 | 0.00 | 63 | 1006.7 |
| 20260504033558 | 55 | 202 | 0.0 | 4.3 | 0.00 | 0.00 | 0.00 | 64 | 1006.7 |
| 20260504033059 | 55 | 202 | 2.6 | 4.3 | 0.00 | 0.00 | 0.00 | 63 | 1006.7 |
| 20260504032557 | 55 | 202 | 0.0 | 1.7 | 0.00 | 0.00 | 0.00 | 64 | 1006.7 |
| 20260504032057 | 55 | 202 | 0.0 | 0.9 | 0.00 | 0.00 | 0.00 | 62 | 1006.7 |
| 20260504031556 | 56 | 202 | 0.0 | 1.7 | 0.00 | 0.00 | 0.00 | 61 | 1006.7 |
| 20260504031056 | 56 | 202 | 0.0 | 1.7 | 0.00 | 0.00 | 0.00 | 61 | 1006.7 |
| 20260504030558 | 56 | 202 | 0.9 | 1.7 | 0.00 | 0.00 | 0.00 | 61 | 1006.7 |
| 20260504030056 | 56 | 202 | 0.9 | 2.6 | 0.00 | 0.00 | 0.00 | 60 | 1006.8 |
| 20260504025555 | 56 | 202 | 0.9 | 2.6 | 0.00 | 0.00 | 0.00 | 60 | 1006.8 |
| 20260504025056 | 57 | 202 | 0.0 | 0.9 | 0.00 | 0.00 | 0.00 | 59 | 1006.8 |
| 20260504024555 | 57 | 202 | 0.0 | 1.7 | 0.00 | 0.00 | 0.00 | 58 | 1007.0 |
| 20260504024053 | 57 | 202 | 0.0 | 1.7 | 0.00 | 0.00 | 0.00 | 58 | 1007.0 |
| 20260504023553 | 57 | 202 | 0.9 | 1.7 | 0.00 | 0.00 | 0.00 | 58 | 1007.0 |
| 20260504023053 | 57 | 202 | 0.9 | 2.6 | 0.00 | 0.00 | 0.00 | 57 | 1007.1 |
| 20260504022553 | 58 | 202 | 1.7 | 2.6 | 0.00 | 0.00 | 0.00 | 57 | 1007.1 |
| 20260504022051 | 58 | 202 | 1.7 | 2.6 | 0.00 | 0.00 | 0.00 | 56 | 1007.1 |
| 20260504021553 | 59 | 202 | 0.0 | 1.7 | 0.00 | 0.00 | 0.00 | 53 | 1007.2 |
| 20260504021054 | 59 | 202 | 0.9 | 1.7 | 0.00 | 0.00 | 0.00 | 53 | 1007.2 |
| 20260504020554 | 59 | 202 | 0.9 | 1.7 | 0.00 | 0.00 | 0.00 | 53 | 1007.2 |
| 20260504015552 | 60 | 202 | 0.9 | 1.7 | 0.00 | 0.00 | 0.00 | 51 | 1007.2 |
| 20260504015051 | 61 | 202 | 0.9 | 1.7 | 0.00 | 0.00 | 0.00 | 53 | 1007.2 |
| 20260504014558 | 62 | 202 | 0.0 | 1.7 | 0.00 | 0.00 | 0.00 | 52 | 1007.2 |
| 20260504014051 | 63 | 202 | 0.0 | 2.6 | 0.00 | 0.00 | 0.00 | 51 | 1007.2 |
| 20260504013550 | 64 | 202 | 0.9 | 3.5 | 0.00 | 0.00 | 0.00 | 47 | 1007.2 |
| 20260504013108 | 65 | 202 | 2.6 | 3.5 | 0.00 | 0.00 | 0.00 | 46 | 1007.2 |
| 20260504012550 | 66 | 265 | 2.6 | 3.5 | 0.00 | 0.00 | 0.00 | 44 | 1007.2 |
| 20260504012050 | 67 | 265 | 1.7 | 2.6 | 0.00 | 0.00 | 0.00 | 41 | 1007.2 |